CZ-6A DEB, 54552

Orbit data source: Space-Track

CZ-6A DEB, 54552 is space debris in SSO originally from a launch on Fri, 11 Nov 2022 UTC launched from the Taiyaun Space Center, China (TSC). Debris objects in space refer to the collection of defunct objects orbiting the Earth. Examples of debris include non-operational satellites, rocket bodies, and fragments generated from explosions, collisions, or faulty payload assembly.

Loading next visibility...
Identifier
54552, 2022-151LC
Orbit
SSO
Country
Flag of CNCN / PRC
Related business
Manufacturer
SAST
Mission
Spacecraft
Bus & Motor
Unknown
Mass
Unknown
Launch date (UTC)
2022-11-11 (3 years ago)
Launch vehicle
Unknown
Launch site
Taiyaun Space Center, China (TSC)
Object type
Payload
Rocket body
Debris
Shape & HBR
Unknown shape, 0.3 m
Radar Cross Section
Small (<0.1 m²)

Expand to show TLE details & history
Last TLE update: 9 hours ago

TLE from 9 hours ago
0 CZ-6A DEB
1 54552U 22151LC  25351.91159337  .00000041  00000-0  45968-4 0  9997
2 54552  98.8388 355.7722 0034740 117.2433 243.2284 14.11763761159420
Epoch: 2025-12-17T21:52Z
TLE epoch observation values (Epoch: 2025-12-17T21:52:41.667Z)
Latitude
-0.00007°
Longitude
-59.17606°
Altitude
867.629 km
Speed
7.413 km/s
True Right ascension
23h 43m 05s
True Declination
0° 00' 00"
Sunlit
Object was in daylight at epoch
Visualization orbit readout
Latitude
Unknown
Longitude
Unknown
Altitude
Unknown
Speed
Unknown
Apparent Right ascension
Unknown
Apparent Declination
Unknown
Sunlit
N/A
Visualization observer readout
Local Sidereal Time
05:17:57
Azimuth
Unknown
Elevation
Unknown
Doppler factor
Unknown
Orbital elements
Apogee altitude
875.631 km
Perigee altitude
825.406 km
Semi-major axis
7,228.655 km
Eccentricity
0.00347
Inclination
98.8388°
RAAN
355.7722°
Arg. of periapsis
117.2433°
True anomaly
242.87368°
Mean anomaly
243.2284°
Eccentric anomaly
243.05097°
Mean motion
3.53148 °/min
Orbital period
101.94 mins
BSTAR
0.000045968
Loading maneuver chart data...
Computing Atmospheric mass density...
Loading historical data...
Loading historical data...
Loading historical data...
Loading historical data...
Loading historical data...
Loading historical data...
Loading historical data...

Documentation

Showing up to 5 results
|